ANA182 RJAA-PHNL

Flight info

Callsign ANA182
Flight time 6h 28m
Altitude 37000
Route GULBO Y808 NOLAX Y814 AVBET OTR11 LEPKI 37N160E 36N170E 33N180E 29N170W/N0476F390 DCT DANNO BOOKE8
Aircraft A388/J-SADE2E3FGHIJ3J4J5M1RWXY/LB1D1

Departure

Time 2026-05-05 16:49
Airport Narita International Airport (RJAA)

Arrival

Time 2026-05-05 23:17
Airport Daniel K. Inouye International Airport (PHNL)
Time Latitude Longitude Altitude Speed Heading
2026-05-05 15:26 35.75819 140.38641 149 ft 0 kts 13°
2026-05-05 16:29 35.75808 140.38638 149 ft 3 kts 13°
2026-05-05 16:29 35.75788 140.38632 149 ft 3 kts 13°
2026-05-05 16:29 35.75767 140.38625 149 ft 3 kts 13°
2026-05-05 16:30 35.75747 140.38619 149 ft 3 kts 20°
2026-05-05 16:30 35.75729 140.38609 149 ft 3 kts 40°
2026-05-05 16:30 35.75716 140.38591 149 ft 3 kts 73°
2026-05-05 16:30 35.75715 140.38568 149 ft 3 kts 114°
2026-05-05 16:31 35.75718 140.38560 149 ft 2 kts 122°
2026-05-05 16:38 35.75708 140.38579 149 ft 4 kts 130°
2026-05-05 16:38 35.75678 140.38608 149 ft 7 kts 147°
2026-05-05 16:38 35.75629 140.38643 149 ft 6 kts 171°
2026-05-05 16:39 35.75603 140.38627 149 ft 5 kts 236°
2026-05-05 16:39 35.75596 140.38584 149 ft 6 kts 279°
2026-05-05 16:39 35.75624 140.38529 149 ft 9 kts 322°
2026-05-05 16:39 35.75690 140.38479 149 ft 12 kts 329°
2026-05-05 16:40 35.75718 140.38455 149 ft 3 kts 311°
2026-05-05 16:40 35.75726 140.38429 149 ft 3 kts 263°
2026-05-05 16:40 35.75718 140.38390 149 ft 6 kts 261°
2026-05-05 16:40 35.75729 140.38336 149 ft 8 kts 306°
2026-05-05 16:41 35.75782 140.38284 150 ft 12 kts 328°
2026-05-05 16:41 35.75864 140.38224 149 ft 15 kts 330°
2026-05-05 16:41 35.75963 140.38153 149 ft 17 kts 329°
2026-05-05 16:41 35.76071 140.38075 149 ft 19 kts 329°
2026-05-05 16:42 35.76188 140.37990 149 ft 20 kts 329°
2026-05-05 16:42 35.76311 140.37900 149 ft 21 kts 329°
2026-05-05 16:42 35.76440 140.37806 148 ft 22 kts 329°
2026-05-05 16:42 35.76574 140.37711 149 ft 22 kts 330°
2026-05-05 16:43 35.76709 140.37614 149 ft 23 kts 330°
2026-05-05 16:43 35.76847 140.37515 148 ft 23 kts 329°
2026-05-05 16:43 35.76989 140.37413 148 ft 24 kts 329°
2026-05-05 16:43 35.77133 140.37308 148 ft 24 kts 329°
2026-05-05 16:44 35.77271 140.37208 148 ft 12 kts 329°
2026-05-05 16:44 35.77285 140.37197 148 ft 4 kts 329°
2026-05-05 16:44 35.77328 140.37166 148 ft 10 kts 329°
2026-05-05 16:44 35.77400 140.37114 148 ft 14 kts 330°
2026-05-05 16:45 35.77480 140.37056 148 ft 10 kts 324°
2026-05-05 16:45 35.77498 140.36988 148 ft 9 kts 248°
2026-05-05 16:45 35.77465 140.36913 149 ft 11 kts 240°
2026-05-05 16:45 35.77444 140.36868 149 ft 0 kts 238°
2026-05-05 16:46 35.77438 140.36857 148 ft 1 kts 219°
2026-05-05 16:46 35.77433 140.36853 148 ft 1 kts 199°
2026-05-05 16:46 35.77424 140.36851 148 ft 3 kts 181°
2026-05-05 16:46 35.77380 140.36872 148 ft 12 kts 149°
2026-05-05 16:47 35.77337 140.36903 147 ft 0 kts 149°
2026-05-05 16:48 35.77211 140.36997 146 ft 55 kts 149°
2026-05-05 16:48 35.76668 140.37385 151 ft 121 kts 149°
2026-05-05 16:48 35.75802 140.38008 159 ft 163 kts 150°
2026-05-05 16:48 35.74807 140.38700 625 ft 161 kts 153°
2026-05-05 16:49 35.73823 140.39356 1101 ft 158 kts 155°
2026-05-05 16:49 35.72906 140.40021 1762 ft 151 kts 154°
2026-05-05 16:49 35.72011 140.40702 2161 ft 158 kts 153°
2026-05-05 16:49 35.71014 140.41445 2390 ft 176 kts 153°
2026-05-05 16:50 35.69910 140.42252 2526 ft 192 kts 153°
2026-05-05 16:50 35.68694 140.43132 2699 ft 214 kts 153°
2026-05-05 16:50 35.67352 140.44098 3024 ft 234 kts 152°
2026-05-05 16:50 35.65903 140.45143 3569 ft 245 kts 152°
2026-05-05 16:51 35.64414 140.46218 4208 ft 252 kts 152°
2026-05-05 16:51 35.62878 140.47325 4860 ft 260 kts 152°
2026-05-05 16:51 35.61300 140.48462 5542 ft 265 kts 151°
2026-05-05 16:51 35.59696 140.49616 6238 ft 270 kts 151°
2026-05-05 16:52 35.58085 140.50775 6939 ft 273 kts 151°
2026-05-05 16:52 35.56437 140.51960 7672 ft 273 kts 152°
2026-05-05 16:52 35.54799 140.53138 8436 ft 275 kts 152°
2026-05-05 16:52 35.53124 140.54339 9049 ft 281 kts 152°
2026-05-05 16:53 35.51427 140.55556 9743 ft 284 kts 152°
2026-05-05 16:53 35.49712 140.56786 10418 ft 287 kts 152°
2026-05-05 16:53 35.47934 140.58057 10692 ft 305 kts 152°
2026-05-05 16:53 35.46041 140.59409 10860 ft 324 kts 152°
2026-05-05 16:54 35.44079 140.60915 11132 ft 338 kts 145°
2026-05-05 16:54 35.42329 140.62872 11730 ft 343 kts 134°
2026-05-05 16:54 35.40890 140.65214 12379 ft 346 kts 126°
2026-05-05 16:54 35.39549 140.67691 12917 ft 350 kts 127°
2026-05-05 16:55 35.38179 140.70165 13562 ft 351 kts 128°
2026-05-05 16:55 35.36792 140.72645 14119 ft 355 kts 126°
2026-05-05 16:55 35.35391 140.75154 14641 ft 357 kts 127°
2026-05-05 16:55 35.34001 140.77644 15163 ft 360 kts 127°
2026-05-05 16:56 35.32562 140.80221 15656 ft 364 kts 127°
2026-05-05 16:56 35.31148 140.82755 16154 ft 367 kts 127°
2026-05-05 16:56 35.29703 140.85344 16292 ft 369 kts 127°
2026-05-05 16:56 35.28257 140.87934 16287 ft 367 kts 127°
2026-05-05 16:57 35.26810 140.90520 16292 ft 369 kts 127°
2026-05-05 16:57 35.25356 140.93120 16294 ft 370 kts 127°
2026-05-05 16:57 35.23903 140.95715 16298 ft 370 kts 127°
2026-05-05 16:57 35.22465 140.98321 16293 ft 370 kts 123°
2026-05-05 16:58 35.21506 141.01257 16297 ft 376 kts 103°
2026-05-05 16:58 35.21373 141.04447 16307 ft 380 kts 85°
2026-05-05 16:58 35.22073 141.07574 16310 ft 385 kts 70°
2026-05-05 16:58 35.23105 141.10602 16300 ft 385 kts 68°
2026-05-05 16:59 35.24154 141.13611 16297 ft 384 kts 68°
2026-05-05 16:59 35.25188 141.16631 16305 ft 385 kts 69°
2026-05-05 16:59 35.26190 141.19627 16302 ft 386 kts 69°
2026-05-05 16:59 35.27194 141.22669 16301 ft 384 kts 69°
2026-05-05 17:00 35.28187 141.25697 16302 ft 384 kts 69°
2026-05-05 17:00 35.29181 141.28738 16303 ft 385 kts 69°
2026-05-05 17:00 35.30177 141.31790 16308 ft 386 kts 69°
2026-05-05 17:00 35.31166 141.34828 16305 ft 383 kts 69°
2026-05-05 17:01 35.32156 141.37867 16310 ft 384 kts 69°
2026-05-05 17:01 35.33149 141.40918 16309 ft 386 kts 69°
2026-05-05 17:01 35.34142 141.43971 16308 ft 385 kts 69°
2026-05-05 17:01 35.35131 141.47016 16311 ft 384 kts 69°
2026-05-05 17:02 35.36118 141.50058 16303 ft 386 kts 69°
2026-05-05 17:02 35.37108 141.53115 16310 ft 386 kts 69°
2026-05-05 17:02 35.38096 141.56167 16301 ft 384 kts 70°
2026-05-05 17:02 35.39077 141.59205 16304 ft 383 kts 69°
2026-05-05 17:03 35.40057 141.62240 16307 ft 383 kts 69°
2026-05-05 17:03 35.41037 141.65276 16307 ft 382 kts 69°
2026-05-05 17:03 35.42002 141.68269 16309 ft 383 kts 69°
2026-05-05 17:03 35.42985 141.71320 16304 ft 385 kts 70°
2026-05-05 17:04 35.43803 141.74431 16301 ft 382 kts 78°
2026-05-05 17:04 35.44201 141.77639 16307 ft 380 kts 88°
2026-05-05 17:04 35.44219 141.80886 16299 ft 381 kts 93°
2026-05-05 17:04 35.44177 141.84138 16313 ft 382 kts 92°
2026-05-05 17:05 35.44157 141.87400 16308 ft 382 kts 92°
2026-05-05 17:05 35.44141 141.90616 16310 ft 383 kts 92°
2026-05-05 17:05 35.44121 141.93883 16323 ft 382 kts 91°
2026-05-05 17:05 35.44100 141.97140 16405 ft 383 kts 92°
2026-05-05 17:06 35.44074 142.00440 16698 ft 388 kts 92°
2026-05-05 17:06 35.44048 142.03737 17336 ft 386 kts 92°
2026-05-05 17:06 35.44020 142.07047 17797 ft 391 kts 92°
2026-05-05 17:06 35.43991 142.10402 18257 ft 394 kts 92°
2026-05-05 17:07 35.43961 142.13766 18766 ft 396 kts 92°
2026-05-05 17:07 35.43929 142.17165 19096 ft 401 kts 92°
2026-05-05 17:07 35.43896 142.20604 19449 ft 405 kts 92°
2026-05-05 17:07 35.43862 142.24075 19803 ft 410 kts 92°
2026-05-05 17:08 35.43827 142.27592 20111 ft 415 kts 92°
2026-05-05 17:08 35.43789 142.31161 20431 ft 420 kts 92°
2026-05-05 17:08 35.43751 142.34708 20773 ft 424 kts 92°
2026-05-05 17:08 35.43712 142.38336 21112 ft 428 kts 92°
2026-05-05 17:09 35.43670 142.42011 21440 ft 432 kts 92°
2026-05-05 17:09 35.43627 142.45722 21768 ft 436 kts 92°
2026-05-05 17:09 35.43583 142.49467 22087 ft 441 kts 92°
2026-05-05 17:09 35.43537 142.53244 22420 ft 445 kts 92°
2026-05-05 17:10 35.43489 142.57067 22731 ft 449 kts 92°
2026-05-05 17:10 35.43439 142.60915 23057 ft 453 kts 92°
2026-05-05 17:10 35.43389 142.64748 23372 ft 457 kts 92°
2026-05-05 17:10 35.43336 142.68678 23701 ft 462 kts 92°
2026-05-05 17:11 35.43281 142.72635 23981 ft 466 kts 92°
2026-05-05 17:11 35.43225 142.76622 24254 ft 469 kts 92°
2026-05-05 17:11 35.43167 142.80640 24480 ft 473 kts 92°
2026-05-05 17:11 35.43107 142.84696 24745 ft 477 kts 93°
2026-05-05 17:12 35.43045 142.88780 25014 ft 481 kts 93°
2026-05-05 17:12 35.42982 142.92831 25279 ft 485 kts 93°
2026-05-05 17:12 35.42915 142.97041 25553 ft 488 kts 93°
2026-05-05 17:12 35.42849 143.01175 25821 ft 492 kts 93°
2026-05-05 17:13 35.42779 143.05396 26081 ft 497 kts 93°
2026-05-05 17:13 35.42707 143.09651 26384 ft 500 kts 93°
2026-05-05 17:13 35.42633 143.13931 26678 ft 504 kts 93°
2026-05-05 17:13 35.42558 143.18253 26977 ft 509 kts 93°
2026-05-05 17:14 35.42479 143.22625 27288 ft 513 kts 93°
2026-05-05 17:14 35.42400 143.26964 27604 ft 517 kts 93°
2026-05-05 17:14 35.42527 143.31389 27896 ft 523 kts 83°
2026-05-05 17:14 35.43275 143.35766 28227 ft 527 kts 71°
2026-05-05 17:15 35.44596 143.39959 28531 ft 529 kts 64°
2026-05-05 17:15 35.46070 143.44110 28858 ft 533 kts 64°
2026-05-05 17:15 35.47536 143.48312 29172 ft 538 kts 64°
2026-05-05 17:15 35.49006 143.52550 29492 ft 542 kts 64°
2026-05-05 17:16 35.50487 143.56830 29811 ft 546 kts 64°
2026-05-05 17:16 35.51976 143.61138 30130 ft 550 kts 64°
2026-05-05 17:16 35.53477 143.65482 30456 ft 555 kts 64°
2026-05-05 17:16 35.54989 143.69862 30757 ft 558 kts 64°
2026-05-05 17:17 35.56506 143.74262 31069 ft 561 kts 64°
2026-05-05 17:17 35.58028 143.78684 31403 ft 564 kts 65°
2026-05-05 17:17 35.59037 143.81621 31592 ft 566 kts 65°
2026-05-05 17:17 35.61082 143.87575 31983 ft 571 kts 65°
2026-05-05 17:18 35.62627 143.92084 32271 ft 574 kts 65°
2026-05-05 17:18 35.63675 143.95145 32472 ft 576 kts 65°
2026-05-05 17:18 35.65214 143.99645 32754 ft 579 kts 65°
2026-05-05 17:18 35.66779 144.04228 33039 ft 583 kts 66°
2026-05-05 17:19 35.68351 144.08841 33319 ft 586 kts 66°
2026-05-05 17:19 35.69930 144.13478 33591 ft 589 kts 66°
2026-05-05 17:19 35.71505 144.18117 34268 ft 584 kts 67°
2026-05-05 17:19 35.73059 144.22736 34563 ft 587 kts 66°
2026-05-05 17:20 35.76245 144.32124 34754 ft 600 kts 66°
2026-05-05 17:20 35.77855 144.36876 35042 ft 602 kts 66°
2026-05-05 17:20 35.79463 144.41636 35407 ft 602 kts 66°
2026-05-05 17:21 35.81066 144.46396 35798 ft 601 kts 65°
2026-05-05 17:21 35.82663 144.51149 36197 ft 601 kts 65°
2026-05-05 17:21 35.84266 144.55922 36532 ft 601 kts 65°
2026-05-05 17:22 35.87430 144.65371 37260 ft 600 kts 65°
2026-05-05 17:22 35.90619 144.74923 37333 ft 601 kts 65°
2026-05-05 17:23 35.93809 144.84509 37336 ft 604 kts 65°
2026-05-05 17:23 35.96996 144.94119 37333 ft 604 kts 65°
2026-05-05 17:24 36.00175 145.03734 37333 ft 605 kts 65°
2026-05-05 17:24 36.03325 145.13290 37330 ft 604 kts 65°
2026-05-05 17:25 36.06483 145.22905 37325 ft 604 kts 65°
2026-05-05 17:25 36.09635 145.32531 37324 ft 604 kts 65°
2026-05-05 17:26 36.12777 145.42156 37325 ft 604 kts 65°
2026-05-05 17:26 36.15370 145.52060 37327 ft 606 kts 75°
2026-05-05 17:27 36.17465 145.62180 37325 ft 607 kts 74°
2026-05-05 17:27 36.19582 145.72243 37331 ft 607 kts 74°
2026-05-05 17:28 36.21695 145.82384 37332 ft 608 kts 74°
2026-05-05 17:28 36.23793 145.92537 37337 ft 609 kts 74°
2026-05-05 17:29 36.25882 146.02700 37343 ft 609 kts 74°
2026-05-05 17:29 36.27965 146.12883 37339 ft 610 kts 74°
2026-05-05 17:30 36.30044 146.23091 37336 ft 610 kts 75°
2026-05-05 17:30 36.32112 146.33297 37352 ft 610 kts 75°
2026-05-05 17:31 36.34173 146.43513 37344 ft 611 kts 75°
2026-05-05 17:31 36.36226 146.53736 37347 ft 611 kts 75°
2026-05-05 17:32 36.38255 146.63894 37344 ft 611 kts 75°
2026-05-05 17:32 36.40291 146.74129 37349 ft 611 kts 75°
2026-05-05 17:33 36.42319 146.84378 37349 ft 610 kts 75°
2026-05-05 17:33 36.44336 146.94623 37348 ft 610 kts 75°
2026-05-05 17:34 36.46346 147.04876 37345 ft 610 kts 75°
2026-05-05 17:34 36.48333 147.15064 37336 ft 610 kts 75°
2026-05-05 17:35 36.50322 147.25314 37347 ft 609 kts 75°
2026-05-05 17:35 36.52300 147.35555 37351 ft 609 kts 75°
2026-05-05 17:36 36.54268 147.45797 37344 ft 609 kts 75°
2026-05-05 17:36 36.56229 147.56051 37345 ft 608 kts 75°
2026-05-05 17:37 36.58177 147.66289 37356 ft 608 kts 75°
2026-05-05 17:37 36.60109 147.76495 37341 ft 609 kts 75°
2026-05-05 17:38 36.62041 147.86753 37341 ft 609 kts 75°
2026-05-05 17:38 36.63968 147.97035 37346 ft 609 kts 75°
2026-05-05 17:39 36.65886 148.07321 37342 ft 610 kts 76°
2026-05-05 17:39 36.67783 148.17546 37348 ft 610 kts 76°
2026-05-05 17:40 36.69684 148.27847 37351 ft 610 kts 76°
2026-05-05 17:40 36.71578 148.38161 37344 ft 610 kts 76°
2026-05-05 17:41 36.73461 148.48472 37362 ft 610 kts 76°
2026-05-05 17:41 36.75337 148.58794 37346 ft 610 kts 76°
2026-05-05 17:42 36.77204 148.69124 37356 ft 610 kts 76°
2026-05-05 17:42 36.79051 148.79398 37342 ft 611 kts 76°
2026-05-05 17:43 36.80902 148.89749 37346 ft 611 kts 76°
2026-05-05 17:43 36.82746 149.00113 37346 ft 611 kts 76°
2026-05-05 17:44 36.84580 149.10476 37340 ft 612 kts 76°
2026-05-05 17:44 36.86407 149.20860 37342 ft 612 kts 76°
2026-05-05 17:45 36.88227 149.31259 37341 ft 612 kts 76°
2026-05-05 17:45 36.90039 149.41666 37342 ft 612 kts 76°
2026-05-05 17:46 36.91842 149.52077 37346 ft 612 kts 76°
2026-05-05 17:46 36.93635 149.62495 37350 ft 613 kts 76°
2026-05-05 17:47 36.95410 149.72858 37343 ft 613 kts 77°
2026-05-05 17:47 36.97187 149.83293 37343 ft 613 kts 77°
2026-05-05 17:48 36.98958 149.93717 37340 ft 613 kts 77°
2026-05-05 17:48 37.00204 150.04280 37346 ft 613 kts 88°
2026-05-05 17:49 37.00578 150.14874 37343 ft 613 kts 88°
2026-05-05 17:49 37.01017 150.25539 37339 ft 614 kts 88°
2026-05-05 17:50 37.01453 150.36236 37345 ft 614 kts 88°
2026-05-05 17:50 37.01873 150.46849 37321 ft 614 kts 88°
2026-05-05 17:51 37.02284 150.57509 37363 ft 613 kts 88°
2026-05-05 17:51 37.02679 150.68171 37362 ft 612 kts 88°
2026-05-05 17:52 37.03061 150.78816 37343 ft 612 kts 89°
2026-05-05 17:52 37.03432 150.89453 37341 ft 611 kts 89°
2026-05-05 17:53 37.03796 151.00123 37342 ft 611 kts 89°
2026-05-05 17:53 37.04146 151.10699 37332 ft 612 kts 89°
2026-05-05 17:54 37.04490 151.21363 37337 ft 612 kts 89°
2026-05-05 17:54 37.04825 151.32015 37343 ft 612 kts 89°
2026-05-05 17:55 37.05148 151.42616 37364 ft 611 kts 89°
2026-05-05 17:55 37.05463 151.53265 37355 ft 611 kts 89°
2026-05-05 17:56 37.05768 151.63894 37364 ft 611 kts 89°
2026-05-05 17:56 37.06063 151.74524 37346 ft 611 kts 89°
2026-05-05 17:57 37.06349 151.85166 37345 ft 611 kts 89°
2026-05-05 17:57 37.06626 151.95807 37332 ft 611 kts 90°
2026-05-05 17:58 37.06892 152.06376 37339 ft 611 kts 90°
2026-05-05 17:58 37.07149 152.17012 37338 ft 611 kts 90°
2026-05-05 17:59 37.07398 152.27661 37347 ft 611 kts 90°
2026-05-05 17:59 37.07636 152.38290 37355 ft 610 kts 90°
2026-05-05 18:00 37.07864 152.48900 37357 ft 609 kts 90°
2026-05-05 18:00 37.08083 152.59516 37348 ft 609 kts 90°
2026-05-05 18:01 37.08293 152.70147 37349 ft 609 kts 90°
2026-05-05 18:01 37.08494 152.80760 37346 ft 609 kts 90°
2026-05-05 18:02 37.08684 152.91377 37339 ft 610 kts 91°
2026-05-05 18:02 37.08865 153.01928 37343 ft 610 kts 91°
2026-05-05 18:03 37.09037 153.12557 37345 ft 610 kts 91°
2026-05-05 18:03 37.09199 153.23204 37344 ft 611 kts 91°
2026-05-05 18:04 37.09353 153.33831 37356 ft 609 kts 91°
2026-05-05 18:04 37.09496 153.44444 37363 ft 609 kts 91°
2026-05-05 18:05 37.09630 153.55054 37350 ft 609 kts 91°
2026-05-05 18:05 37.09753 153.65593 37348 ft 609 kts 91°
2026-05-05 18:06 37.09868 153.76190 37341 ft 608 kts 91°
2026-05-05 18:06 37.09973 153.86782 37338 ft 608 kts 91°
2026-05-05 18:07 37.10054 153.95655 37338 ft 608 kts 91°
2026-05-05 18:07 37.10142 154.06194 37345 ft 608 kts 92°
2026-05-05 18:08 37.10221 154.16814 37333 ft 609 kts 92°
2026-05-05 18:08 37.10291 154.27425 37343 ft 607 kts 92°
2026-05-05 18:09 37.10350 154.38018 37338 ft 607 kts 92°
2026-05-05 18:09 37.10400 154.48530 37338 ft 607 kts 92°
2026-05-05 18:10 37.10441 154.59121 37340 ft 607 kts 92°
2026-05-05 18:10 37.10473 154.69695 37339 ft 607 kts 92°
2026-05-05 18:11 37.10495 154.80295 37335 ft 607 kts 92°
2026-05-05 18:11 37.10508 154.90876 37333 ft 607 kts 92°
2026-05-05 18:12 37.10512 155.01462 37328 ft 607 kts 92°
2026-05-05 18:12 37.10505 155.12054 37325 ft 607 kts 93°
2026-05-05 18:13 37.10490 155.22573 37335 ft 605 kts 92°
2026-05-05 18:13 37.10466 155.33112 37336 ft 604 kts 92°
2026-05-05 18:14 37.10432 155.43585 37324 ft 603 kts 92°
2026-05-05 18:14 37.10389 155.54090 37320 ft 603 kts 92°
2026-05-05 18:15 37.10337 155.64596 37319 ft 602 kts 92°
2026-05-05 18:15 37.10275 155.75077 37310 ft 601 kts 93°
2026-05-05 18:16 37.10204 155.85568 37304 ft 601 kts 93°
2026-05-05 18:16 37.10125 155.95970 37306 ft 601 kts 93°
2026-05-05 18:17 37.10036 156.06444 37308 ft 601 kts 93°
2026-05-05 18:17 37.09937 156.16953 37315 ft 601 kts 93°
2026-05-05 18:18 37.09830 156.27426 37319 ft 601 kts 92°
2026-05-05 18:18 37.09713 156.37904 37307 ft 601 kts 92°
2026-05-05 18:19 37.09588 156.48308 37308 ft 600 kts 93°
2026-05-05 18:19 37.09453 156.58770 37304 ft 600 kts 92°
2026-05-05 18:20 37.09310 156.69180 37310 ft 599 kts 93°
2026-05-05 18:20 37.09157 156.79611 37305 ft 598 kts 93°
2026-05-05 18:21 37.08995 156.90039 37298 ft 598 kts 93°
2026-05-05 18:21 37.08825 157.00443 37306 ft 597 kts 93°
2026-05-05 18:22 37.08646 157.10786 37294 ft 596 kts 93°
2026-05-05 18:22 37.08457 157.21172 37261 ft 595 kts 92°
2026-05-05 18:23 37.08262 157.31455 37290 ft 593 kts 92°
2026-05-05 18:23 37.08057 157.41776 37282 ft 592 kts 92°
2026-05-05 18:24 37.07843 157.52079 37279 ft 592 kts 93°
2026-05-05 18:24 37.07620 157.62376 37276 ft 592 kts 93°
2026-05-05 18:25 37.07389 157.72689 37273 ft 592 kts 93°
2026-05-05 18:25 37.07148 157.82999 37275 ft 592 kts 93°
2026-05-05 18:26 37.06898 157.93322 37286 ft 592 kts 93°
2026-05-05 18:26 37.06641 158.03568 37282 ft 592 kts 94°
2026-05-05 18:27 37.06374 158.13879 37283 ft 592 kts 94°
2026-05-05 18:27 37.06098 158.24199 37300 ft 589 kts 94°
2026-05-05 18:28 37.05674 158.39426 37285 ft 580 kts 94°
2026-05-05 18:28 37.05381 158.49475 37278 ft 581 kts 94°
2026-05-05 18:29 37.05079 158.59602 37280 ft 581 kts 94°
2026-05-05 18:29 37.04769 158.69723 37281 ft 581 kts 94°
2026-05-05 18:30 37.04450 158.79851 37278 ft 581 kts 95°
2026-05-05 18:30 37.04126 158.89894 37287 ft 580 kts 95°
2026-05-05 18:31 37.03791 158.99977 37281 ft 579 kts 95°
2026-05-05 18:31 37.03448 159.10044 37272 ft 579 kts 95°
2026-05-05 18:32 37.03097 159.20097 37263 ft 578 kts 96°
2026-05-05 18:32 37.02738 159.30142 37272 ft 576 kts 96°
2026-05-05 18:33 37.02372 159.40155 37260 ft 575 kts 96°
2026-05-05 18:33 37.02000 159.50085 37261 ft 574 kts 96°
2026-05-05 18:34 37.01620 159.60064 37265 ft 573 kts 96°
2026-05-05 18:34 37.01236 159.70042 37250 ft 572 kts 96°
2026-05-05 18:35 37.00847 159.80002 37251 ft 572 kts 96°
2026-05-05 18:35 37.00453 159.89882 37267 ft 571 kts 97°
2026-05-05 18:36 37.00023 159.99796 37253 ft 569 kts 98°
2026-05-05 18:36 36.99360 160.09652 37247 ft 568 kts 98°
2026-05-05 18:37 36.98818 160.19525 37250 ft 569 kts 98°
2026-05-05 18:37 36.98261 160.29384 37244 ft 567 kts 98°
2026-05-05 18:38 36.97682 160.39212 37252 ft 566 kts 99°
2026-05-05 18:38 36.97096 160.48959 37247 ft 565 kts 99°
2026-05-05 18:39 36.96497 160.58772 37252 ft 565 kts 99°
2026-05-05 18:39 36.95886 160.68569 37246 ft 564 kts 99°
2026-05-05 18:40 36.95266 160.78349 37241 ft 564 kts 99°
2026-05-05 18:40 36.94638 160.88131 37232 ft 564 kts 99°
2026-05-05 18:41 36.94001 160.97915 37246 ft 564 kts 99°
2026-05-05 18:41 36.93358 161.07674 37245 ft 563 kts 99°
2026-05-05 18:42 36.92711 161.17371 37247 ft 563 kts 99°
2026-05-05 18:42 36.92052 161.27135 37252 ft 563 kts 99°
2026-05-05 18:43 36.91387 161.36869 37254 ft 561 kts 99°
2026-05-05 18:43 36.90714 161.46592 37247 ft 561 kts 99°
2026-05-05 18:44 36.90037 161.56251 37246 ft 560 kts 99°
2026-05-05 18:44 36.89350 161.65954 37242 ft 560 kts 99°
2026-05-05 18:45 36.88655 161.75643 37240 ft 560 kts 99°
2026-05-05 18:45 36.87952 161.85338 37240 ft 560 kts 100°
2026-05-05 18:46 36.87245 161.94977 37243 ft 560 kts 100°
2026-05-05 18:46 36.86527 162.04671 37244 ft 560 kts 100°
2026-05-05 18:47 36.85801 162.14348 37241 ft 560 kts 100°
2026-05-05 18:47 36.85067 162.24029 37243 ft 560 kts 100°
2026-05-05 18:48 36.84327 162.33703 37258 ft 558 kts 99°
2026-05-05 18:48 36.83579 162.43352 37245 ft 558 kts 99°
2026-05-05 18:49 36.82824 162.52994 37244 ft 558 kts 100°
2026-05-05 18:49 36.82062 162.62634 37243 ft 557 kts 99°
2026-05-05 18:50 36.81297 162.72201 37237 ft 557 kts 100°
2026-05-05 18:50 36.80520 162.81836 37241 ft 557 kts 100°
2026-05-05 18:51 36.79736 162.91447 37235 ft 557 kts 100°
2026-05-05 18:51 36.78943 163.01067 37231 ft 557 kts 100°
2026-05-05 18:52 36.78143 163.10684 37235 ft 557 kts 100°
2026-05-05 18:52 36.77340 163.20248 37236 ft 558 kts 100°
2026-05-05 18:53 36.76523 163.29877 37237 ft 558 kts 100°
2026-05-05 18:53 36.75700 163.39492 37236 ft 557 kts 99°
2026-05-05 18:54 36.74869 163.49090 37235 ft 557 kts 99°
2026-05-05 18:54 36.74032 163.58678 37234 ft 556 kts 99°
2026-05-05 18:55 36.73191 163.68227 37234 ft 555 kts 100°
2026-05-05 18:55 36.72341 163.77786 37235 ft 554 kts 100°
2026-05-05 18:56 36.71484 163.87333 37228 ft 554 kts 100°
2026-05-05 18:56 36.70766 163.95265 37225 ft 553 kts 100°
2026-05-05 18:57 36.69896 164.04797 37225 ft 553 kts 100°
2026-05-05 18:57 36.68877 164.15856 37226 ft 552 kts 100°
2026-05-05 18:58 36.68136 164.23821 37218 ft 552 kts 100°
2026-05-05 18:58 36.67252 164.33252 37219 ft 552 kts 100°
2026-05-05 18:59 36.66357 164.42729 37248 ft 549 kts 100°
2026-05-05 18:59 36.65457 164.52166 37233 ft 547 kts 101°
2026-05-05 19:00 36.64554 164.61568 37230 ft 546 kts 101°
2026-05-05 19:00 36.63643 164.70961 37215 ft 545 kts 101°
2026-05-05 19:01 36.62733 164.80261 37222 ft 544 kts 101°
2026-05-05 19:01 36.61812 164.89610 37207 ft 544 kts 101°
2026-05-05 19:02 36.60882 164.98963 37201 ft 543 kts 101°
2026-05-05 19:02 36.59947 165.08301 37202 ft 543 kts 101°
2026-05-05 19:03 36.59004 165.17632 37208 ft 543 kts 101°
2026-05-05 19:03 36.58063 165.26887 37212 ft 542 kts 101°
2026-05-05 19:04 36.57105 165.36219 37217 ft 542 kts 101°
2026-05-05 19:04 36.56144 165.45517 37221 ft 541 kts 101°
2026-05-05 19:05 36.55182 165.54752 37217 ft 541 kts 101°
2026-05-05 19:05 36.54207 165.64038 37217 ft 541 kts 101°
2026-05-05 19:06 36.53227 165.73302 37211 ft 540 kts 101°
2026-05-05 19:06 36.52239 165.82571 37220 ft 540 kts 101°
2026-05-05 19:07 36.51245 165.91832 37217 ft 540 kts 101°
2026-05-05 19:07 36.50244 166.01086 37220 ft 540 kts 101°
2026-05-05 19:08 36.49236 166.10330 37219 ft 540 kts 101°
2026-05-05 19:08 36.48222 166.19571 37228 ft 539 kts 101°
2026-05-05 19:09 36.47202 166.28799 37226 ft 539 kts 101°
2026-05-05 19:09 36.46182 166.37956 37222 ft 538 kts 101°
2026-05-05 19:10 36.45149 166.47162 37231 ft 537 kts 101°
2026-05-05 19:10 36.44111 166.56350 37225 ft 536 kts 101°
2026-05-05 19:11 36.43069 166.65514 37218 ft 536 kts 101°
2026-05-05 19:11 36.42020 166.74669 37217 ft 535 kts 101°
2026-05-05 19:12 36.40964 166.83819 37215 ft 535 kts 101°
2026-05-05 19:12 36.39899 166.92987 37217 ft 536 kts 102°
2026-05-05 19:13 36.38828 167.02148 37215 ft 536 kts 102°
2026-05-05 19:13 36.37757 167.11244 37220 ft 536 kts 102°
2026-05-05 19:14 36.36672 167.20396 37216 ft 536 kts 102°
2026-05-05 19:14 36.35578 167.29568 37225 ft 536 kts 102°
2026-05-05 19:15 36.34477 167.38728 37232 ft 537 kts 102°
2026-05-05 19:15 36.33377 167.47831 37229 ft 537 kts 102°
2026-05-05 19:16 36.32264 167.56973 37235 ft 535 kts 102°
2026-05-05 19:16 36.31147 167.66094 37232 ft 535 kts 102°
2026-05-05 19:17 36.30023 167.75207 37233 ft 534 kts 102°
2026-05-05 19:17 36.28894 167.84309 37227 ft 534 kts 102°
2026-05-05 19:18 36.27759 167.93396 37225 ft 533 kts 102°
2026-05-05 19:18 36.26616 168.02488 37222 ft 533 kts 102°
2026-05-05 19:19 36.25468 168.11561 37222 ft 533 kts 102°
2026-05-05 19:19 36.24319 168.20590 37226 ft 533 kts 102°
2026-05-05 19:20 36.23155 168.29678 37226 ft 533 kts 102°
2026-05-05 19:20 36.21986 168.38752 37228 ft 534 kts 102°
2026-05-05 19:21 36.20808 168.47835 37230 ft 534 kts 102°
2026-05-05 19:21 36.19625 168.56905 37214 ft 534 kts 102°
2026-05-05 19:22 36.18435 168.65973 37239 ft 533 kts 102°
2026-05-05 19:22 36.17248 168.74968 37240 ft 533 kts 102°
2026-05-05 19:23 36.16046 168.84019 37237 ft 533 kts 102°
2026-05-05 19:23 36.14837 168.93064 37238 ft 533 kts 102°
2026-05-05 19:24 36.13622 169.02104 37236 ft 532 kts 103°
2026-05-05 19:24 36.12401 169.11133 37237 ft 532 kts 103°
2026-05-05 19:25 36.11171 169.20179 37235 ft 532 kts 103°
2026-05-05 19:25 36.09936 169.29206 37240 ft 532 kts 103°
2026-05-05 19:26 36.08694 169.38235 37240 ft 532 kts 103°
2026-05-05 19:26 36.07445 169.47262 37237 ft 532 kts 103°
2026-05-05 19:27 36.06198 169.56222 37244 ft 533 kts 103°
2026-05-05 19:27 36.04939 169.65247 37238 ft 533 kts 103°
2026-05-05 19:28 36.03675 169.74279 37238 ft 533 kts 103°
2026-05-05 19:28 36.02404 169.83306 37249 ft 533 kts 103°
2026-05-05 19:29 36.01128 169.92321 37250 ft 533 kts 103°
2026-05-05 19:29 35.99649 170.01262 37248 ft 530 kts 108°
2026-05-05 19:30 35.97506 170.09881 37243 ft 528 kts 111°
2026-05-05 19:30 35.95323 170.18543 37246 ft 528 kts 110°
2026-05-05 19:31 35.93157 170.27214 37241 ft 528 kts 111°
2026-05-05 19:31 35.90980 170.35881 37241 ft 529 kts 111°
2026-05-05 19:32 35.88792 170.44557 37243 ft 529 kts 111°
2026-05-05 19:32 35.86599 170.53216 37252 ft 528 kts 111°
2026-05-05 19:33 35.84416 170.61803 37247 ft 527 kts 111°
2026-05-05 19:33 35.82215 170.70415 37244 ft 527 kts 111°
2026-05-05 19:34 35.80006 170.79025 37248 ft 527 kts 111°
2026-05-05 19:35 35.76681 170.91932 37238 ft 527 kts 111°
2026-05-05 19:35 35.74457 171.00531 37241 ft 527 kts 111°
2026-05-05 19:36 35.72229 171.09116 37245 ft 527 kts 111°
2026-05-05 19:36 35.70009 171.17640 37244 ft 527 kts 111°
2026-05-05 19:37 35.67766 171.26224 37257 ft 526 kts 111°
2026-05-05 19:37 35.65520 171.34795 37256 ft 526 kts 111°
2026-05-05 19:38 35.63270 171.43351 37244 ft 526 kts 111°
2026-05-05 19:38 35.61012 171.51911 37243 ft 526 kts 111°
2026-05-05 19:39 35.58763 171.60411 37243 ft 526 kts 111°
2026-05-05 19:39 35.56496 171.68947 37244 ft 526 kts 111°
2026-05-05 19:40 35.54219 171.77495 37247 ft 526 kts 111°
2026-05-05 19:40 35.51934 171.86048 37259 ft 527 kts 111°
2026-05-05 19:41 35.49644 171.94588 37258 ft 527 kts 111°
2026-05-05 19:41 35.47345 172.03136 37268 ft 526 kts 111°
2026-05-05 19:42 35.45062 172.11600 37259 ft 526 kts 111°
2026-05-05 19:42 35.42756 172.20118 37261 ft 526 kts 111°
2026-05-05 19:43 35.40445 172.28632 37258 ft 525 kts 111°
2026-05-05 19:43 35.38131 172.37129 37259 ft 525 kts 111°
2026-05-05 19:44 35.35826 172.45564 37248 ft 526 kts 110°
2026-05-05 19:44 35.33498 172.54058 37253 ft 526 kts 111°
2026-05-05 19:45 35.31161 172.62559 37264 ft 526 kts 111°
2026-05-05 19:45 35.28817 172.71059 37257 ft 527 kts 111°
2026-05-05 19:46 35.26483 172.79495 37274 ft 525 kts 111°
2026-05-05 19:46 35.24133 172.87962 37273 ft 525 kts 111°
2026-05-05 19:47 35.22163 172.95040 37265 ft 524 kts 111°
2026-05-05 19:47 35.19822 173.03431 37261 ft 524 kts 111°
2026-05-05 19:48 35.17461 173.11863 37263 ft 524 kts 111°
2026-05-05 19:48 35.15097 173.20283 37256 ft 524 kts 111°
2026-05-05 19:49 35.12723 173.28713 37259 ft 524 kts 111°
2026-05-05 19:49 35.10341 173.37143 37258 ft 525 kts 111°
2026-05-05 19:50 35.07969 173.45516 37266 ft 525 kts 111°
2026-05-05 19:50 35.05575 173.53939 37282 ft 524 kts 110°
2026-05-05 19:51 35.03172 173.62368 37271 ft 525 kts 110°
2026-05-05 19:51 35.00769 173.70775 37271 ft 524 kts 110°
2026-05-05 19:52 34.98374 173.79128 37270 ft 524 kts 111°
2026-05-05 19:52 34.95956 173.87530 37266 ft 524 kts 111°
2026-05-05 19:53 34.93536 173.95920 37259 ft 524 kts 110°
2026-05-05 19:53 34.91107 174.04314 37262 ft 524 kts 110°
2026-05-05 19:54 34.88684 174.12665 37263 ft 525 kts 111°
2026-05-05 19:54 34.86245 174.21043 37265 ft 525 kts 111°
2026-05-05 19:55 34.83796 174.29432 37287 ft 524 kts 110°
2026-05-05 19:55 34.81366 174.37730 37274 ft 524 kts 110°
2026-05-05 19:56 34.78912 174.46089 37271 ft 524 kts 110°
2026-05-05 19:56 34.76450 174.54451 37269 ft 524 kts 110°
2026-05-05 19:57 34.73988 174.62785 37270 ft 523 kts 110°
2026-05-05 19:57 34.71522 174.71110 37263 ft 524 kts 110°
2026-05-05 19:58 34.69043 174.79456 37261 ft 524 kts 110°
2026-05-05 19:58 34.66575 174.87741 37266 ft 525 kts 110°
2026-05-05 19:59 34.64085 174.96075 37274 ft 525 kts 110°
2026-05-05 19:59 34.61589 175.04405 37291 ft 524 kts 110°
2026-05-05 20:00 34.59090 175.12718 37275 ft 525 kts 110°
2026-05-05 20:00 34.56583 175.21037 37278 ft 524 kts 110°
2026-05-05 20:01 34.54071 175.29350 37280 ft 524 kts 110°
2026-05-05 20:01 34.51567 175.37614 37278 ft 524 kts 110°
2026-05-05 20:02 34.49042 175.45918 37271 ft 525 kts 110°
2026-05-05 20:02 34.46513 175.54217 37273 ft 525 kts 110°
2026-05-05 20:03 34.43975 175.62521 37274 ft 525 kts 110°
2026-05-05 20:03 34.41430 175.70824 37276 ft 525 kts 110°
2026-05-05 20:04 34.38901 175.79053 37287 ft 524 kts 110°
2026-05-05 20:04 34.36332 175.87382 37276 ft 525 kts 110°
2026-05-05 20:05 34.33787 175.95618 37280 ft 525 kts 110°
2026-05-05 20:05 34.31224 176.03889 37278 ft 525 kts 110°
2026-05-05 20:06 34.28656 176.12150 37279 ft 525 kts 110°
2026-05-05 20:06 34.26081 176.20411 37286 ft 525 kts 110°
2026-05-05 20:07 34.23493 176.28690 37269 ft 526 kts 110°
2026-05-05 20:07 34.20900 176.36964 37274 ft 526 kts 110°
2026-05-05 20:08 34.18300 176.45238 37281 ft 527 kts 110°
2026-05-05 20:08 34.15694 176.53508 37300 ft 526 kts 110°
2026-05-05 20:09 34.13101 176.61713 37297 ft 526 kts 110°
2026-05-05 20:09 34.10488 176.69958 37295 ft 525 kts 110°
2026-05-05 20:10 34.07873 176.78188 37286 ft 525 kts 110°
2026-05-05 20:10 34.05254 176.86409 37284 ft 524 kts 110°
2026-05-05 20:11 34.02637 176.94602 37282 ft 524 kts 110°
2026-05-05 20:11 34.00009 177.02806 37268 ft 525 kts 110°
2026-05-05 20:12 33.97372 177.11017 37276 ft 525 kts 110°
2026-05-05 20:12 33.94727 177.19231 37282 ft 526 kts 110°
2026-05-05 20:13 33.92092 177.27390 37286 ft 527 kts 110°
2026-05-05 20:13 33.89416 177.35653 37281 ft 527 kts 110°
2026-05-05 20:14 33.86755 177.43851 37289 ft 528 kts 110°
2026-05-05 20:14 33.84072 177.52094 37292 ft 528 kts 110°
2026-05-05 20:15 33.81387 177.60321 37296 ft 529 kts 110°
2026-05-05 20:15 33.78695 177.68549 37296 ft 528 kts 110°
2026-05-05 20:16 33.75995 177.76775 37286 ft 529 kts 110°
2026-05-05 20:16 33.73308 177.84943 37285 ft 529 kts 110°
2026-05-05 20:17 33.70597 177.93163 37286 ft 529 kts 110°
2026-05-05 20:17 33.67879 178.01382 37283 ft 529 kts 110°
2026-05-05 20:18 33.65160 178.09580 37306 ft 528 kts 110°
2026-05-05 20:18 33.62438 178.17767 37283 ft 528 kts 110°
2026-05-05 20:19 33.59714 178.25942 37283 ft 528 kts 110°
2026-05-05 20:19 33.56983 178.34113 37284 ft 528 kts 110°
2026-05-05 20:20 33.54247 178.42278 37283 ft 528 kts 110°
2026-05-05 20:20 33.51517 178.50403 37273 ft 528 kts 110°
2026-05-05 20:21 33.48767 178.58570 37275 ft 529 kts 110°
2026-05-05 20:21 33.46009 178.66739 37287 ft 529 kts 110°
2026-05-05 20:22 33.43236 178.74929 37286 ft 530 kts 110°
2026-05-05 20:22 33.40462 178.83100 37298 ft 529 kts 110°
2026-05-05 20:23 33.37688 178.91253 37295 ft 529 kts 110°
2026-05-05 20:23 33.34922 178.99360 37296 ft 529 kts 110°
2026-05-05 20:24 33.32140 179.07494 37290 ft 528 kts 110°
2026-05-05 20:24 33.29355 179.15615 37282 ft 528 kts 110°
2026-05-05 20:25 33.26567 179.23727 37290 ft 527 kts 110°
2026-05-05 20:25 33.23775 179.31828 37285 ft 528 kts 110°
2026-05-05 20:26 33.20973 179.39938 37284 ft 528 kts 110°
2026-05-05 20:26 33.18169 179.48035 37284 ft 528 kts 110°
2026-05-05 20:27 33.15358 179.56130 37265 ft 528 kts 110°
2026-05-05 20:27 33.12549 179.64208 37291 ft 527 kts 110°
2026-05-05 20:28 33.09748 179.72252 37282 ft 527 kts 110°
2026-05-05 20:28 33.06924 179.80340 37285 ft 527 kts 110°
2026-05-05 20:29 33.04099 179.88414 37289 ft 527 kts 110°
2026-05-05 20:29 33.01269 179.96479 37280 ft 527 kts 110°
2026-05-05 20:30 32.98357 -179.95489 37266 ft 528 kts 110°
2026-05-05 20:30 32.95571 -179.87411 37284 ft 527 kts 109°
2026-05-05 20:31 32.92818 -179.79367 37281 ft 528 kts 110°
2026-05-05 20:31 32.90020 -179.71284 37282 ft 528 kts 110°
2026-05-05 20:32 32.87208 -179.63203 37298 ft 527 kts 110°
2026-05-05 20:32 32.84873 -179.56509 37292 ft 527 kts 110°
2026-05-05 20:33 32.82058 -179.48457 37282 ft 526 kts 110°
2026-05-05 20:33 32.78780 -179.39109 37282 ft 526 kts 110°
2026-05-05 20:34 32.76415 -179.32390 37279 ft 526 kts 110°
2026-05-05 20:34 32.73608 -179.24436 37282 ft 525 kts 110°
2026-05-05 20:35 32.70771 -179.16414 37280 ft 526 kts 110°
2026-05-05 20:35 32.67932 -179.08409 37271 ft 526 kts 110°
2026-05-05 20:36 32.65081 -179.00390 37280 ft 526 kts 110°
2026-05-05 20:36 32.62231 -178.92392 37277 ft 527 kts 110°
2026-05-05 20:37 32.59373 -178.84391 37299 ft 526 kts 110°
2026-05-05 20:37 32.56527 -178.76443 37290 ft 526 kts 110°
2026-05-05 20:38 32.53662 -178.68461 37276 ft 526 kts 110°
2026-05-05 20:38 32.50796 -178.60494 37277 ft 526 kts 110°
2026-05-05 20:39 32.47925 -178.52534 37279 ft 525 kts 111°
2026-05-05 20:39 32.45045 -178.44569 37268 ft 525 kts 111°
2026-05-05 20:40 32.42160 -178.36607 37267 ft 525 kts 111°
2026-05-05 20:40 32.39290 -178.28703 37280 ft 525 kts 111°
2026-05-05 20:41 32.36402 -178.20771 37282 ft 525 kts 111°
2026-05-05 20:41 32.33502 -178.12826 37287 ft 525 kts 111°
2026-05-05 20:42 32.30598 -178.04887 37282 ft 525 kts 111°
2026-05-05 20:42 32.27712 -177.97017 37279 ft 525 kts 111°
2026-05-05 20:43 32.24805 -177.89107 37288 ft 525 kts 111°
2026-05-05 20:43 32.21889 -177.81191 37265 ft 524 kts 111°
2026-05-05 20:44 32.18971 -177.73288 37262 ft 524 kts 111°
2026-05-05 20:44 32.16052 -177.65402 37268 ft 525 kts 111°
2026-05-05 20:45 32.11657 -177.53561 37270 ft 525 kts 111°
2026-05-05 20:45 32.08738 -177.45720 37272 ft 525 kts 111°
2026-05-05 20:46 32.05793 -177.37829 37272 ft 525 kts 111°
2026-05-05 20:46 32.02846 -177.29949 37268 ft 525 kts 111°
2026-05-05 20:47 31.99891 -177.22067 37268 ft 525 kts 111°
2026-05-05 20:47 31.96937 -177.14206 37270 ft 525 kts 111°
2026-05-05 20:48 31.93997 -177.06397 37283 ft 524 kts 111°
2026-05-05 20:48 31.91029 -176.98533 37269 ft 524 kts 112°
2026-05-05 20:49 31.88061 -176.90685 37260 ft 525 kts 112°
2026-05-05 20:49 31.85082 -176.82827 37261 ft 525 kts 112°
2026-05-05 20:50 31.82116 -176.75022 37261 ft 525 kts 112°
2026-05-05 20:50 31.79128 -176.67175 37264 ft 526 kts 112°
2026-05-05 20:51 31.76134 -176.59332 37266 ft 526 kts 112°
2026-05-05 20:51 31.73133 -176.51486 37270 ft 526 kts 112°
2026-05-05 20:52 31.70127 -176.43646 37269 ft 526 kts 112°
2026-05-05 20:52 31.67122 -176.35825 37270 ft 526 kts 112°
2026-05-05 20:53 31.64111 -176.28007 37267 ft 525 kts 112°
2026-05-05 20:53 31.61111 -176.20236 37266 ft 525 kts 112°
2026-05-05 20:54 31.58089 -176.12422 37255 ft 526 kts 112°
2026-05-05 20:54 31.55059 -176.04606 37258 ft 526 kts 112°
2026-05-05 20:55 31.52026 -175.96801 37260 ft 526 kts 112°
2026-05-05 20:55 31.48985 -175.88990 37262 ft 527 kts 112°
2026-05-05 20:56 31.45935 -175.81175 37260 ft 527 kts 112°
2026-05-05 20:56 31.42884 -175.73376 37268 ft 526 kts 112°
2026-05-05 20:57 31.39832 -175.65590 37262 ft 526 kts 112°
2026-05-05 20:57 31.36782 -175.57826 37263 ft 525 kts 112°
2026-05-05 20:58 31.33747 -175.50117 37257 ft 525 kts 112°
2026-05-05 20:58 31.30691 -175.42371 37267 ft 524 kts 112°
2026-05-05 20:59 31.27623 -175.34613 37250 ft 525 kts 112°
2026-05-05 20:59 31.24552 -175.26862 37250 ft 526 kts 112°
2026-05-05 21:00 31.21474 -175.19112 37251 ft 526 kts 112°
2026-05-05 21:00 31.18388 -175.11358 37253 ft 526 kts 113°
2026-05-05 21:01 31.15293 -175.03599 37264 ft 527 kts 112°
2026-05-05 21:01 31.12189 -174.95833 37253 ft 528 kts 113°
2026-05-05 21:02 31.09096 -174.88111 37256 ft 528 kts 113°
2026-05-05 21:02 31.05976 -174.80337 37259 ft 528 kts 113°
2026-05-05 21:03 31.02854 -174.72576 37258 ft 528 kts 113°
2026-05-05 21:03 30.99726 -174.64819 37256 ft 529 kts 113°
2026-05-05 21:04 30.96611 -174.57107 37249 ft 529 kts 113°
2026-05-05 21:04 30.93469 -174.49346 37246 ft 529 kts 113°
2026-05-05 21:05 30.90320 -174.41586 37248 ft 529 kts 113°
2026-05-05 21:05 30.87168 -174.33833 37247 ft 529 kts 113°
2026-05-05 21:06 30.84025 -174.26120 37223 ft 530 kts 113°
2026-05-05 21:06 30.80867 -174.18384 37247 ft 529 kts 113°
2026-05-05 21:07 30.77704 -174.10654 37249 ft 529 kts 113°
2026-05-05 21:07 30.74536 -174.02927 37238 ft 529 kts 113°
2026-05-05 21:08 30.71365 -173.95211 37236 ft 529 kts 113°
2026-05-05 21:08 30.68192 -173.87505 37223 ft 529 kts 113°
2026-05-05 21:09 30.65008 -173.79788 37231 ft 530 kts 113°
2026-05-05 21:09 30.61840 -173.72126 37235 ft 530 kts 114°
2026-05-05 21:10 30.58636 -173.64394 37239 ft 531 kts 114°
2026-05-05 21:10 30.55431 -173.56673 37245 ft 531 kts 114°
2026-05-05 21:11 30.52218 -173.48951 37238 ft 532 kts 114°
2026-05-05 21:11 30.49002 -173.41239 37239 ft 531 kts 114°
2026-05-05 21:12 30.45799 -173.33572 37238 ft 531 kts 114°
2026-05-05 21:12 30.42576 -173.25874 37236 ft 531 kts 114°
2026-05-05 21:13 30.39352 -173.18190 37232 ft 530 kts 114°
2026-05-05 21:13 30.36119 -173.10498 37224 ft 530 kts 114°
2026-05-05 21:14 30.32882 -173.02815 37224 ft 531 kts 114°
2026-05-05 21:14 30.29642 -172.95140 37225 ft 531 kts 114°
2026-05-05 21:15 30.26397 -172.87466 37229 ft 531 kts 114°
2026-05-05 21:15 30.23148 -172.79802 37225 ft 531 kts 114°
2026-05-05 21:16 30.19884 -172.72116 37222 ft 532 kts 114°
2026-05-05 21:16 30.16621 -172.64449 37240 ft 531 kts 114°
2026-05-05 21:17 30.13372 -172.56831 37239 ft 531 kts 114°
2026-05-05 21:17 30.10102 -172.49178 37222 ft 531 kts 114°
2026-05-05 21:18 30.06826 -172.41526 37222 ft 531 kts 114°
2026-05-05 21:18 30.03546 -172.33882 37210 ft 531 kts 114°
2026-05-05 21:19 30.00821 -172.27541 37215 ft 531 kts 114°
2026-05-05 21:19 29.96997 -172.18663 37217 ft 531 kts 114°
2026-05-05 21:20 29.94253 -172.12304 37218 ft 532 kts 114°
2026-05-05 21:20 29.90953 -172.04672 37220 ft 532 kts 114°
2026-05-05 21:21 29.87648 -171.97041 37220 ft 532 kts 114°
2026-05-05 21:21 29.84341 -171.89423 37231 ft 531 kts 114°
2026-05-05 21:22 29.81035 -171.81822 37226 ft 530 kts 114°
2026-05-05 21:22 29.77725 -171.74226 37217 ft 529 kts 114°
2026-05-05 21:23 29.74440 -171.66703 37211 ft 529 kts 115°
2026-05-05 21:23 29.71132 -171.59141 37198 ft 529 kts 115°
2026-05-05 21:24 29.67815 -171.51574 37202 ft 529 kts 115°
2026-05-05 21:24 29.64497 -171.44020 37205 ft 530 kts 115°
2026-05-05 21:25 29.61170 -171.36459 37206 ft 530 kts 115°
2026-05-05 21:25 29.57838 -171.28902 37207 ft 530 kts 115°
2026-05-05 21:26 29.54496 -171.21337 37210 ft 531 kts 115°
2026-05-05 21:26 29.51146 -171.13770 37215 ft 530 kts 115°
2026-05-05 21:27 29.47818 -171.06267 37215 ft 530 kts 115°
2026-05-05 21:27 29.44472 -170.98736 37213 ft 529 kts 115°
2026-05-05 21:28 29.41122 -170.91210 37207 ft 529 kts 115°
2026-05-05 21:28 29.37769 -170.83694 37200 ft 529 kts 115°
2026-05-05 21:29 29.34411 -170.76179 37200 ft 529 kts 115°
2026-05-05 21:29 29.31051 -170.68675 37198 ft 529 kts 115°
2026-05-05 21:30 29.27684 -170.61170 37200 ft 530 kts 115°
2026-05-05 21:30 29.24334 -170.53717 37213 ft 530 kts 115°
2026-05-05 21:31 29.20951 -170.46205 37199 ft 531 kts 115°
2026-05-05 21:31 29.17560 -170.38685 37214 ft 530 kts 115°
2026-05-05 21:32 29.14175 -170.31187 37209 ft 530 kts 115°
2026-05-05 21:32 29.10786 -170.23693 37205 ft 529 kts 115°
2026-05-05 21:33 29.07417 -170.16255 37212 ft 529 kts 115°
2026-05-05 21:33 29.04025 -170.08783 37192 ft 529 kts 115°
2026-05-05 21:34 29.00589 -170.01339 37190 ft 530 kts 117°
2026-05-05 21:34 28.96593 -169.94234 37192 ft 531 kts 123°
2026-05-05 21:35 28.92463 -169.87305 37192 ft 531 kts 122°
2026-05-05 21:35 28.88326 -169.80293 37194 ft 532 kts 122°
2026-05-05 21:36 28.84187 -169.73295 37210 ft 532 kts 122°
2026-05-05 21:36 28.80041 -169.66303 37200 ft 532 kts 122°
2026-05-05 21:37 28.75920 -169.59366 37198 ft 531 kts 122°
2026-05-05 21:37 28.71768 -169.52389 37193 ft 531 kts 122°
2026-05-05 21:38 28.67607 -169.45414 37190 ft 531 kts 122°
2026-05-05 21:38 28.63446 -169.38453 37174 ft 531 kts 122°
2026-05-05 21:39 28.59304 -169.31535 37177 ft 532 kts 122°
2026-05-05 21:39 28.55131 -169.24577 37183 ft 532 kts 122°
2026-05-05 21:40 28.50952 -169.17621 37223 ft 531 kts 122°
2026-05-05 21:40 28.46773 -169.10677 37200 ft 531 kts 122°
2026-05-05 21:41 28.42603 -169.03758 37190 ft 531 kts 122°
2026-05-05 21:41 28.38453 -168.96883 37179 ft 531 kts 122°
2026-05-05 21:42 28.34274 -168.89973 37178 ft 530 kts 122°
2026-05-05 21:42 28.30096 -168.83073 37177 ft 530 kts 122°
2026-05-05 21:43 28.25912 -168.76177 37176 ft 530 kts 123°
2026-05-05 21:43 28.21724 -168.69284 37176 ft 530 kts 123°
2026-05-05 21:44 28.17537 -168.62404 37209 ft 529 kts 122°
2026-05-05 21:44 28.13357 -168.55547 37190 ft 528 kts 122°
2026-05-05 21:45 28.09176 -168.48699 37186 ft 528 kts 122°
2026-05-05 21:45 28.04995 -168.41863 37185 ft 527 kts 123°
2026-05-05 21:46 28.00840 -168.35077 37178 ft 527 kts 123°
2026-05-05 21:46 27.96656 -168.28257 37175 ft 527 kts 123°
2026-05-05 21:47 27.92477 -168.21456 37168 ft 526 kts 123°
2026-05-05 21:47 27.88295 -168.14660 37165 ft 526 kts 123°
2026-05-05 21:48 27.84108 -168.07867 37162 ft 526 kts 123°
2026-05-05 21:48 27.79915 -168.01075 37162 ft 526 kts 123°
2026-05-05 21:49 27.75720 -167.94289 37161 ft 527 kts 123°
2026-05-05 21:49 27.71541 -167.87540 37159 ft 528 kts 123°
2026-05-05 21:50 27.67325 -167.80742 37163 ft 529 kts 123°
2026-05-05 21:50 27.63095 -167.73932 37170 ft 530 kts 123°
2026-05-05 21:51 27.58864 -167.67132 37174 ft 530 kts 123°
2026-05-05 21:51 27.54622 -167.60324 37173 ft 530 kts 123°
2026-05-05 21:52 27.48251 -167.50121 37177 ft 529 kts 123°
2026-05-05 21:53 27.44016 -167.43349 37173 ft 529 kts 123°
2026-05-05 21:53 27.39805 -167.36628 37174 ft 528 kts 123°
2026-05-05 21:54 27.35570 -167.29879 37168 ft 527 kts 123°
2026-05-05 21:54 27.31334 -167.23139 37163 ft 527 kts 123°
2026-05-05 21:55 27.27098 -167.16406 37145 ft 527 kts 123°
2026-05-05 21:55 27.22858 -167.09681 37149 ft 527 kts 123°
2026-05-05 21:56 27.18612 -167.02954 37143 ft 527 kts 123°
2026-05-05 21:56 27.14366 -166.96240 37182 ft 526 kts 123°
2026-05-05 21:57 27.10159 -166.89595 37174 ft 525 kts 123°
2026-05-05 21:57 27.05919 -166.82908 37157 ft 525 kts 123°
2026-05-05 21:58 27.01680 -166.76234 37153 ft 525 kts 123°
2026-05-05 21:58 26.97441 -166.69569 37152 ft 525 kts 123°
2026-05-05 21:59 26.93200 -166.62912 37149 ft 524 kts 123°
2026-05-05 21:59 26.88981 -166.56299 37148 ft 524 kts 123°
2026-05-05 22:00 26.84732 -166.49647 37151 ft 524 kts 123°
2026-05-05 22:00 26.80482 -166.43004 37182 ft 523 kts 123°
2026-05-05 22:01 26.76245 -166.36393 37178 ft 522 kts 123°
2026-05-05 22:01 26.72009 -166.29792 37171 ft 522 kts 123°
2026-05-05 22:02 26.67774 -166.23203 37164 ft 521 kts 123°
2026-05-05 22:02 26.63543 -166.16628 37162 ft 520 kts 123°
2026-05-05 22:03 26.59308 -166.10057 37144 ft 520 kts 124°
2026-05-05 22:03 26.55097 -166.03534 37142 ft 520 kts 124°
2026-05-05 22:04 26.50861 -165.96980 37141 ft 520 kts 124°
2026-05-05 22:04 26.46618 -165.90426 37121 ft 520 kts 124°
2026-05-05 22:05 26.42385 -165.83897 37159 ft 519 kts 124°
2026-05-05 22:05 26.38153 -165.77377 37162 ft 518 kts 124°
2026-05-05 22:06 26.33914 -165.70858 37149 ft 518 kts 124°
2026-05-05 22:06 26.29707 -165.64396 37148 ft 518 kts 124°
2026-05-05 22:07 26.25472 -165.57901 37146 ft 518 kts 124°
2026-05-05 22:07 26.21230 -165.51404 37144 ft 518 kts 124°
2026-05-05 22:08 26.17709 -165.46017 37137 ft 518 kts 124°
2026-05-05 22:08 26.13461 -165.39528 37135 ft 518 kts 124°
2026-05-05 22:09 26.09217 -165.33053 37147 ft 517 kts 124°
2026-05-05 22:09 26.04968 -165.26581 37147 ft 517 kts 124°
2026-05-05 22:10 26.00746 -165.20159 37141 ft 517 kts 124°
2026-05-05 22:10 25.96502 -165.13711 37138 ft 517 kts 124°
2026-05-05 22:11 25.92248 -165.07258 37149 ft 517 kts 124°
2026-05-05 22:11 25.87994 -165.00813 37132 ft 517 kts 124°
2026-05-05 22:12 25.83737 -164.94373 37135 ft 518 kts 124°
2026-05-05 22:12 25.79501 -164.87974 37139 ft 518 kts 124°
2026-05-05 22:13 25.75214 -164.81507 37149 ft 518 kts 125°
2026-05-05 22:13 25.70943 -164.75073 37155 ft 517 kts 125°
2026-05-05 22:14 25.66703 -164.68695 37145 ft 517 kts 125°
2026-05-05 22:14 25.62440 -164.62290 37142 ft 516 kts 125°
2026-05-05 22:15 25.58180 -164.55898 37137 ft 516 kts 125°
2026-05-05 22:15 25.53906 -164.49494 37137 ft 515 kts 125°
2026-05-05 22:16 25.49643 -164.43116 37137 ft 515 kts 125°
2026-05-05 22:16 25.45375 -164.36739 37130 ft 515 kts 125°
2026-05-05 22:17 25.41105 -164.30366 37121 ft 515 kts 125°
2026-05-05 22:17 25.36860 -164.24041 37135 ft 514 kts 126°
2026-05-05 22:18 25.32593 -164.17691 37133 ft 514 kts 126°
2026-05-05 22:18 25.28324 -164.11345 37132 ft 514 kts 126°
2026-05-05 22:19 25.24072 -164.05035 37133 ft 514 kts 126°
2026-05-05 22:19 25.19806 -163.98711 37137 ft 513 kts 126°
2026-05-05 22:20 25.15536 -163.92391 37125 ft 513 kts 126°
2026-05-05 22:20 25.11266 -163.86078 37122 ft 513 kts 126°
2026-05-05 22:21 25.06988 -163.79762 37121 ft 513 kts 126°
2026-05-05 22:21 25.02717 -163.73465 37142 ft 512 kts 126°
2026-05-05 22:22 24.98470 -163.67213 37135 ft 511 kts 126°
2026-05-05 22:22 24.94202 -163.60936 37135 ft 511 kts 126°
2026-05-05 22:23 24.89937 -163.54673 37119 ft 511 kts 126°
2026-05-05 22:23 24.85672 -163.48417 37117 ft 511 kts 126°
2026-05-05 22:24 24.81403 -163.42164 37115 ft 510 kts 126°
2026-05-05 22:24 24.77131 -163.35915 37114 ft 510 kts 126°
2026-05-05 22:25 24.72861 -163.29675 37120 ft 510 kts 127°
2026-05-05 22:25 24.68589 -163.23442 37108 ft 510 kts 127°
2026-05-05 22:26 24.64302 -163.17196 37103 ft 511 kts 127°
2026-05-05 22:26 24.60045 -163.10999 37108 ft 512 kts 127°
2026-05-05 22:27 24.55743 -163.04746 37109 ft 512 kts 127°
2026-05-05 22:27 24.51438 -162.98497 37117 ft 513 kts 127°
2026-05-05 22:28 24.47126 -162.92246 37109 ft 514 kts 127°
2026-05-05 22:28 24.42802 -162.85985 37116 ft 514 kts 127°
2026-05-05 22:29 24.38498 -162.79762 37120 ft 515 kts 127°
2026-05-05 22:29 24.34167 -162.73506 37127 ft 515 kts 127°
2026-05-05 22:30 24.29832 -162.67253 37127 ft 515 kts 127°
2026-05-05 22:30 24.25495 -162.61006 37116 ft 514 kts 127°
2026-05-05 22:31 24.21157 -162.54764 37110 ft 515 kts 128°
2026-05-05 22:31 24.16812 -162.48521 37110 ft 515 kts 128°
2026-05-05 22:32 24.12463 -162.42279 37108 ft 515 kts 128°
2026-05-05 22:32 24.08140 -162.36084 37109 ft 515 kts 128°
2026-05-05 22:33 24.03789 -162.29855 37111 ft 515 kts 128°
2026-05-05 22:33 23.99432 -162.23626 37104 ft 516 kts 128°
2026-05-05 22:34 23.95068 -162.17396 37102 ft 516 kts 128°
2026-05-05 22:34 23.90700 -162.11167 37111 ft 515 kts 128°
2026-05-05 22:35 23.86335 -162.04949 37107 ft 515 kts 128°
2026-05-05 22:35 23.81998 -161.98779 37105 ft 515 kts 128°
2026-05-05 22:36 23.77627 -161.92568 37101 ft 515 kts 128°
2026-05-05 22:36 23.73257 -161.86362 37100 ft 515 kts 128°
2026-05-05 22:37 23.68917 -161.80205 37099 ft 515 kts 128°
2026-05-05 22:37 23.64544 -161.74010 37100 ft 515 kts 128°
2026-05-05 22:38 23.60173 -161.67825 37101 ft 515 kts 128°
2026-05-05 22:38 23.55799 -161.61642 37097 ft 515 kts 128°
2026-05-05 22:39 23.51462 -161.55439 37101 ft 515 kts 126°
2026-05-05 22:39 23.47380 -161.49025 37097 ft 515 kts 125°
2026-05-05 22:40 23.43311 -161.42610 37099 ft 515 kts 125°
2026-05-05 22:40 23.39234 -161.36255 37100 ft 515 kts 126°
2026-05-05 22:41 23.35116 -161.29864 37098 ft 515 kts 126°
2026-05-05 22:41 23.30994 -161.23477 37100 ft 515 kts 126°
2026-05-05 22:42 23.26868 -161.17093 37099 ft 515 kts 126°
2026-05-05 22:42 23.22742 -161.10715 37098 ft 515 kts 126°
2026-05-05 22:43 23.18615 -161.04342 37089 ft 515 kts 126°
2026-05-05 22:43 23.14510 -160.98014 37083 ft 515 kts 126°
2026-05-05 22:44 23.10378 -160.91650 37099 ft 516 kts 126°
2026-05-05 22:44 23.06235 -160.85277 37084 ft 516 kts 126°
2026-05-05 22:45 23.02090 -160.78909 37095 ft 517 kts 126°
2026-05-05 22:45 22.97935 -160.72535 37100 ft 517 kts 127°
2026-05-05 22:46 22.93777 -160.66162 37100 ft 517 kts 127°
2026-05-05 22:46 22.89616 -160.59793 37092 ft 518 kts 127°
2026-05-05 22:47 22.85448 -160.53420 37100 ft 518 kts 127°
2026-05-05 22:47 22.81304 -160.47093 37070 ft 518 kts 127°
2026-05-05 22:48 22.77118 -160.40711 37072 ft 520 kts 127°
2026-05-05 22:48 22.72918 -160.34312 37084 ft 520 kts 127°
2026-05-05 22:49 22.68712 -160.27914 37089 ft 521 kts 127°
2026-05-05 22:49 22.64504 -160.21520 37089 ft 521 kts 127°
2026-05-05 22:50 22.60293 -160.15130 37086 ft 522 kts 128°
2026-05-05 22:50 22.56070 -160.08728 37085 ft 522 kts 128°
2026-05-05 22:51 22.51834 -160.02316 37073 ft 528 kts 128°
2026-05-05 22:51 22.47621 -159.95943 36998 ft 519 kts 128°
2026-05-05 22:51 22.45524 -159.92775 36436 ft 518 kts 128°
2026-05-05 22:52 22.43417 -159.89595 35491 ft 522 kts 128°
2026-05-05 22:52 22.41293 -159.86392 34486 ft 527 kts 128°
2026-05-05 22:52 22.39140 -159.83148 33287 ft 534 kts 128°
2026-05-05 22:52 22.36967 -159.79873 32259 ft 535 kts 127°
2026-05-05 22:53 22.34805 -159.76615 31569 ft 530 kts 127°
2026-05-05 22:53 22.32679 -159.73411 31129 ft 519 kts 127°
2026-05-05 22:53 22.30617 -159.70307 30560 ft 512 kts 127°
2026-05-05 22:53 22.28545 -159.67191 29930 ft 507 kts 127°
2026-05-05 22:54 22.26501 -159.64119 29299 ft 500 kts 127°
2026-05-05 22:54 22.24483 -159.61088 28710 ft 493 kts 127°
2026-05-05 22:54 22.22491 -159.58099 28123 ft 487 kts 127°
2026-05-05 22:54 22.20527 -159.55151 27532 ft 480 kts 127°
2026-05-05 22:55 22.18582 -159.52236 26983 ft 475 kts 127°
2026-05-05 22:55 22.16664 -159.49360 26405 ft 470 kts 127°
2026-05-05 22:55 22.14788 -159.46551 25864 ft 465 kts 128°
2026-05-05 22:55 22.12902 -159.43731 25308 ft 461 kts 128°
2026-05-05 22:56 22.11035 -159.40937 24745 ft 457 kts 128°
2026-05-05 22:56 22.09185 -159.38168 24185 ft 453 kts 128°
2026-05-05 22:56 22.07349 -159.35425 23630 ft 450 kts 128°
2026-05-05 22:56 22.06137 -159.33615 23224 ft 447 kts 128°
2026-05-05 22:57 22.03723 -159.30011 22498 ft 439 kts 128°
2026-05-05 22:57 22.02542 -159.28249 22140 ft 436 kts 128°
2026-05-05 22:57 22.00777 -159.25616 21599 ft 431 kts 127°
2026-05-05 22:57 21.99028 -159.23008 21056 ft 427 kts 127°
2026-05-05 22:58 21.97299 -159.20431 20523 ft 423 kts 127°
2026-05-05 22:58 21.95583 -159.17875 19986 ft 419 kts 127°
2026-05-05 22:58 21.93881 -159.15341 19449 ft 416 kts 127°
2026-05-05 22:58 21.92189 -159.12824 18915 ft 413 kts 127°
2026-05-05 22:59 21.90513 -159.10330 18376 ft 410 kts 127°
2026-05-05 22:59 21.88848 -159.07855 17793 ft 406 kts 127°
2026-05-05 22:59 21.87196 -159.05399 17273 ft 401 kts 127°
2026-05-05 22:59 21.85568 -159.02980 16734 ft 397 kts 127°
2026-05-05 23:00 21.82330 -158.98175 15398 ft 396 kts 127°
2026-05-05 23:00 21.80725 -158.95791 15037 ft 391 kts 127°
2026-05-05 23:00 21.79126 -158.93419 14521 ft 390 kts 127°
2026-05-05 23:01 21.77543 -158.91073 13986 ft 386 kts 127°
2026-05-05 23:01 21.75976 -158.88750 13427 ft 381 kts 127°
2026-05-05 23:01 21.74430 -158.86460 12915 ft 375 kts 127°
2026-05-05 23:01 21.72927 -158.84233 12397 ft 370 kts 127°
2026-05-05 23:02 21.71424 -158.82010 11904 ft 365 kts 127°
2026-05-05 23:02 21.69937 -158.79810 11395 ft 360 kts 127°
2026-05-05 23:02 21.68475 -158.77647 10911 ft 356 kts 127°
2026-05-05 23:02 21.67029 -158.75510 10509 ft 349 kts 127°
2026-05-05 23:03 21.65630 -158.73440 10369 ft 334 kts 127°
2026-05-05 23:03 21.64289 -158.71459 10246 ft 321 kts 127°
2026-05-05 23:03 21.63003 -158.69559 10143 ft 308 kts 127°
2026-05-05 23:03 21.61764 -158.67729 9969 ft 299 kts 127°
2026-05-05 23:04 21.60543 -158.65928 9809 ft 297 kts 127°
2026-05-05 23:04 21.59342 -158.64156 9557 ft 297 kts 127°
2026-05-05 23:04 21.58129 -158.62369 9272 ft 293 kts 127°
2026-05-05 23:04 21.56943 -158.60619 8990 ft 288 kts 127°
2026-05-05 23:05 21.55775 -158.58897 8727 ft 282 kts 128°
2026-05-05 23:05 21.54628 -158.57206 8461 ft 277 kts 128°
2026-05-05 23:05 21.53500 -158.55544 8186 ft 273 kts 128°
2026-05-05 23:05 21.52384 -158.53900 7914 ft 270 kts 128°
2026-05-05 23:06 21.51286 -158.52282 7632 ft 267 kts 128°
2026-05-05 23:06 21.50201 -158.50684 7390 ft 263 kts 129°
2026-05-05 23:06 21.49129 -158.49107 7129 ft 260 kts 129°
2026-05-05 23:06 21.48065 -158.47546 6871 ft 257 kts 128°
2026-05-05 23:07 21.47020 -158.46010 6590 ft 257 kts 127°
2026-05-05 23:07 21.45971 -158.44461 6316 ft 256 kts 127°
2026-05-05 23:07 21.44974 -158.42872 6066 ft 257 kts 125°
2026-05-05 23:07 21.44015 -158.41254 5798 ft 256 kts 123°
2026-05-05 23:08 21.43066 -158.39642 5528 ft 254 kts 124°
2026-05-05 23:08 21.42117 -158.38049 5260 ft 253 kts 124°
2026-05-05 23:08 21.41165 -158.36458 4993 ft 254 kts 123°
2026-05-05 23:08 21.40207 -158.34873 4730 ft 252 kts 124°
2026-05-05 23:09 21.39250 -158.33294 4444 ft 253 kts 124°
2026-05-05 23:09 21.38293 -158.31717 4170 ft 251 kts 124°
2026-05-05 23:09 21.37341 -158.30144 3986 ft 253 kts 124°
2026-05-05 23:09 21.36398 -158.28590 3991 ft 242 kts 124°
2026-05-05 23:10 21.35510 -158.27111 3989 ft 229 kts 123°
2026-05-05 23:10 21.34692 -158.25688 3994 ft 220 kts 122°
2026-05-05 23:10 21.33898 -158.24309 3992 ft 216 kts 123°
2026-05-05 23:10 21.33094 -158.22945 3994 ft 217 kts 123°
2026-05-05 23:11 21.32523 -158.21452 3969 ft 221 kts 100°
2026-05-05 23:11 21.32497 -158.19805 3934 ft 222 kts 89°
2026-05-05 23:11 21.32529 -158.18147 3884 ft 221 kts 89°
2026-05-05 23:11 21.32529 -158.16524 3830 ft 215 kts 90°
2026-05-05 23:12 21.32524 -158.14977 3718 ft 201 kts 90°
2026-05-05 23:12 21.32525 -158.13482 3456 ft 197 kts 90°
2026-05-05 23:12 21.32525 -158.12061 3195 ft 185 kts 90°
2026-05-05 23:12 21.32526 -158.10701 2949 ft 182 kts 91°
2026-05-05 23:13 21.32525 -158.09355 2721 ft 182 kts 90°
2026-05-05 23:13 21.32525 -158.07970 2472 ft 183 kts 91°
2026-05-05 23:13 21.32526 -158.06635 2243 ft 173 kts 91°
2026-05-05 23:13 21.32526 -158.05407 2020 ft 159 kts 91°
2026-05-05 23:14 21.32526 -158.04252 1816 ft 154 kts 92°
2026-05-05 23:14 21.32522 -158.03086 1609 ft 156 kts 92°
2026-05-05 23:14 21.32516 -158.01932 1401 ft 154 kts 92°
2026-05-05 23:14 21.32507 -158.00797 1247 ft 150 kts 91°
2026-05-05 23:15 21.32506 -157.99660 1044 ft 154 kts 91°
2026-05-05 23:15 21.32517 -157.98507 789 ft 154 kts 91°
2026-05-05 23:15 21.32530 -157.97369 583 ft 151 kts 94°
2026-05-05 23:15 21.32523 -157.96267 410 ft 149 kts 94°
2026-05-05 23:16 21.32533 -157.95167 219 ft 146 kts 95°
2026-05-05 23:16 21.32532 -157.94104 43 ft 138 kts 96°
2026-05-05 23:16 21.32516 -157.93216 30 ft 97 kts 90°
2026-05-05 23:16 21.32524 -157.92609 29 ft 68 kts 89°
2026-05-05 23:17 21.32527 -157.92327 29 ft 0 kts 90°
2026-05-05 23:17 21.32527 -157.92299 29 ft 6 kts 81°
2026-05-05 23:17 21.32550 -157.92263 29 ft 6 kts 20°
2026-05-05 23:17 21.32596 -157.92275 29 ft 9 kts 326°
2026-05-05 23:18 21.32651 -157.92313 29 ft 0 kts 329°
2026-05-05 23:19 21.32656 -157.92316 29 ft 3 kts 329°
2026-05-05 23:19 21.32695 -157.92341 29 ft 10 kts 329°
2026-05-05 23:19 21.32749 -157.92348 29 ft 9 kts 30°
2026-05-05 23:20 21.32774 -157.92291 29 ft 6 kts 81°
2026-05-05 23:20 21.32791 -157.92256 29 ft 5 kts 24°
2026-05-05 23:20 21.32825 -157.92262 29 ft 7 kts 320°
2026-05-05 23:20 21.32863 -157.92299 29 ft 7 kts 317°
2026-05-05 23:21 21.32879 -157.92315 29 ft 1 kts 319°
2026-05-05 23:29 21.76484 -158.89503 13612 ft 383 kts 127°
2026-05-05 23:29 21.33016 -158.22811 3996 ft 217 kts 122°
2026-05-05 23:29 21.32526 -158.04535 1867 ft 153 kts 91°
2026-05-05 23:29 21.32523 -158.03382 1675 ft 156 kts 92°
2026-05-05 23:30 21.32518 -158.02218 1450 ft 154 kts 91°
2026-05-05 23:30 21.32512 -158.01400 1306 ft 153 kts 91°
2026-05-05 23:30 21.32506 -157.99894 1083 ft 154 kts 91°
2026-05-05 23:30 21.32510 -157.98756 831 ft 154 kts 91°
2026-05-05 23:31 21.32531 -157.97554 633 ft 151 kts 95°
2026-05-05 23:31 21.32524 -157.96453 437 ft 150 kts 94°
2026-05-05 23:31 21.32531 -157.95348 247 ft 146 kts 94°
2026-05-05 23:31 21.32533 -157.94258 60 ft 140 kts 96°
2026-05-05 23:32 21.32516 -157.93294 30 ft 101 kts 90°
2026-05-05 23:32 21.32449 -157.92864 29 ft 88 kts 69°
2026-05-05 23:32 21.32458 -157.97377 585 ft 158 kts 72°
2026-05-05 23:32 21.32456 -157.95690 313 ft 162 kts 15°
2026-05-05 23:33 21.32533 -157.94178 51 ft 139 kts 96°
2026-05-05 23:33 21.32516 -157.93294 30 ft 101 kts 90°
2026-05-05 23:33 21.32523 -157.92719 29 ft 73 kts 89°
2026-05-05 23:33 21.32527 -157.92346 29 ft 24 kts 90°
2026-05-05 23:34 21.32526 -157.92318 29 ft 4 kts 90°
2026-05-05 23:34 21.32532 -157.92281 29 ft 6 kts 60°
2026-05-05 23:34 21.32563 -157.92260 29 ft 6 kts 358°
2026-05-05 23:34 21.32607 -157.92283 29 ft 11 kts 326°
2026-05-05 23:35 21.32646 -157.92310 29 ft 12 kts 328°
2026-05-05 23:35 21.32651 -157.92313 29 ft 0 kts 329°
2026-05-05 23:36 21.32674 -157.92328 29 ft 7 kts 329°
2026-05-05 23:36 21.32728 -157.92353 29 ft 8 kts
2026-05-05 23:37 21.32771 -157.92314 29 ft 10 kts 79°
2026-05-05 23:37 21.32784 -157.92261 29 ft 6 kts 46°
2026-05-05 23:37 21.32819 -157.92257 29 ft 5 kts 328°
2026-05-05 23:37 21.32856 -157.92292 29 ft 6 kts 317°
2026-05-05 23:38 21.32876 -157.92312 29 ft 0 kts 318°
2026-05-05 23:38 21.32879 -157.92315 29 ft 0 kts 319°